Snowfall_Accumulation
0.0 0.0 0.0 0.0 0.0 0.0 0.0 0.0 0.0 0.0 0.0 0.0 0.0 0.0 0.0 0.0 0.0 0.0 0.0 0.0 0.0 0.0 0.0 0.0 0.0 0.0 0.0 0.0 0.0 0.0 0.0 0.0 0.0 0.0 0.0 0.0 0.0 0.0 0.0 0.0 0.0 0.0 0.0 0.0 0.0
0.0 0.0 0.0 0.0 0.0 0.0 0.0 0.0 0.0 0.0 0.0 0.0 0.0 0.0 0.0 0.0 0.0 0.0 0.0 0.0 0.0 0.0 0.0 0.0 0.0 0.0 0.0 0.0 0.0 0.0 0.0 0.0 0.0 0.0 0.0 0.0 0.0 0.0 0.0 0.0 0.0 0.0 0.0 0.0 0.0
0.0 0.0 0.0 0.0 0.0 0.0 0.0 0.0 0.0 0.0 0.0 0.0 0.0 0.0 0.0 0.0 0.0 0.0 0.0 0.0 0.0 0.0 0.0 0.0 0.0 0.0 0.0 0.0 0.0 0.0 0.0 0.0 0.0 0.0 0.0 0.0 0.0 0.0 0.0 0.0 0.0 0.0 0.0 0.0 0.0
0.0 0.0 0.0 0.0 0.0 0.0 0.0 0.0 0.0 0.0 0.0 0.0 0.0 0.0 0.0 0.0 0.0 0.0 0.0 0.0 0.0 0.0 0.0 0.0 0.0 0.0 0.0 0.0 0.0 0.0 0.0 0.0 0.0 0.0 0.0 0.0 0.0 0.0 0.0 0.0 0.0 0.0 0.0 0.0 0.0
0.0 0.0 0.0 0.0 0.0 0.0 0.0 0.0 0.0 0.0 0.0 0.0 0.0 0.0 0.0 0.0 0.0 0.0 0.0 0.0 0.0 0.0 0.0 0.0 0.0 0.0 0.0 0.0 0.0 0.0 0.0 0.0 0.0 0.0 0.0 0.0 0.0 0.0 0.0 0.0 0.0 0.0 0.0 0.0 0.0
0.0 0.0 0.0 0.0 0.0 0.0 0.0 0.0 0.0 0.0 0.0 0.0 0.0 0.0 0.0 0.0 0.0 0.0 0.0 0.0 0.0 0.0 0.0 0.0 0.0 0.0 0.0 0.0 0.0 0.0 0.0 0.0 0.0 0.0 0.0 0.0 0.0 0.0 0.0 0.0 0.0 0.0 0.0 0.0 0.0
0.0 0.0 0.0 0.0 0.0 0.0 0.0 0.0 0.0 0.0 0.0 0.0 0.0 0.0 0.0 0.0 0.0 0.0 0.0 0.0 0.0 0.0 0.0 0.0 0.0 0.0 0.0 0.0 0.0 0.0 0.1 0.0 0.0 0.0 0.0 0.0 0.0 0.0 0.0 0.0 0.0 0.0 0.0 0.0 0.0
0.0 0.0 0.0 0.0 0.0 0.0 0.0 0.0 0.0 0.0 0.0 0.0 0.0 0.0 0.0 0.0 0.0 0.0 0.0 0.0 0.0 0.0 0.0 0.0 0.0 0.0 0.0 0.0 0.0 0.1 0.0 0.2 0.0 0.0 0.0 0.0 0.7 0.0 0.0 0.0 0.0 0.0 0.0 0.0 0.0
0.0 0.0 0.0 0.0 0.0 0.0 0.0 0.0 0.0 0.0 0.0 0.0 0.0 0.0 0.0 0.0 0.0 0.0 0.0 0.0 0.0 0.0 0.0 0.0 0.0 0.0 0.0 0.3 0.5 0.0 1.1 0.1 0.0 0.0 0.0 0.0 0.8 0.0 0.0 0.0 0.0 0.0 0.0 0.0 0.0
0.0 0.0 0.0 0.0 0.0 0.0 0.0 0.0 0.0 0.0 0.0 0.0 0.0 0.0 0.0 0.0 0.0 0.0 0.0 0.0 0.0 0.0 0.0 0.0 0.0 0.3 0.1 0.8 3.0 0.5 1.1 0.1 0.3 0.0 0.0 0.0 0.0 0.0 0.0 0.0 0.0 0.0 0.0 0.0 0.0
0.0 0.0 0.0 0.0 0.0 0.0 0.0 0.0 0.0 0.0 0.0 0.0 0.0 0.0 0.0 0.0 0.0 0.0 0.0 0.0 0.0 0.0 0.0 0.0 0.2 1.6 0.4 0.1 0.2 0.2 0.8 0.8 0.0 0.0 0.2 0.3 0.0 0.0 0.0 0.0 0.0 0.0 0.0 0.0 0.0
0.0 0.0 0.0 0.0 0.0 0.0 0.0 0.0 0.0 0.0 0.3 0.0 0.0 0.0 0.0 0.0 0.0 0.0 0.0 0.0 0.0 0.0 0.0 0.0 0.1 0.0 0.0 0.0 0.3 0.5 0.9 0.4 0.0 0.0 0.0 0.1 0.0 0.0 0.0 0.0 0.0 0.0 0.0 0.0 0.0
0.0 0.0 0.0 0.0 0.0 0.0 0.0 0.0 0.0 0.0 1.3 0.0 0.0 0.0 0.0 0.0 0.0 0.0 0.0 0.0 0.0 0.1 0.0 0.7 0.0 0.0 0.0 0.4 0.9 0.0 0.1 0.1 0.0 0.0 0.0 0.0 0.0 0.0 0.0 0.0 0.0 0.0 0.0 0.0 0.0
0.0 0.0 0.0 0.0 0.0 0.0 0.0 0.0 0.0 0.0 14.5 0.3 0.0 0.0 0.0 0.0 0.0 0.0 0.0 0.0 0.5 0.1 0.0 0.1 0.0 0.0 0.0 0.1 0.6 1.6 0.0 0.0 0.0 0.0 2.1 0.0 0.6 0.0 0.0 0.0 0.0 0.0 0.0 0.0 0.0
0.0 0.0 0.0 0.0 0.0 0.0 0.0 0.0 0.0 0.0 46.6 0.0 0.0 0.0 0.0 0.0 0.0 0.0 0.0 0.0 2.1 0.5 0.2 0.2 0.0 0.5 0.7 0.0 0.0 0.6 0.0 0.0 0.0 0.0 0.1 0.2 2.0 0.0 0.0 0.0 0.0 0.0 0.0 0.0 0.0
0.0 0.0 0.0 0.0 0.0 0.0 0.0 0.0 0.0 27.0 41.0 0.2 0.0 0.0 0.0 0.0 0.0 0.0 0.0 0.0 0.0 3.0 1.3 0.1 0.0 0.0 0.1 0.0 0.0 0.0 0.0 0.0 0.0 3.8 14.5 0.1 0.2 0.0 0.0 0.0 0.0 0.0 0.0 0.0 0.0
0.0 0.0 0.0 0.0 0.0 0.0 0.0 0.0 41.0 44.5 0.0 0.3 0.1 0.0 0.0 0.6 0.0 0.1 4.9 4.7 5.2 13.4 8.5 0.3 0.0 0.0 0.0 0.4 0.0 0.0 2.8 22.1 27.3 29.2 17.3 0.0 0.9 0.0 0.0 0.0 0.0 0.0 0.0 0.0 0.0
0.0 0.0 0.0 0.0 0.0 0.0 0.0 14.4 63.9 2.0 0.3 0.0 0.0 0.1 0.8 0.0 0.3 0.4 0.8 3.0 2.6 4.0 12.0 6.6 3.1 0.0 0.0 0.0 1.4 2.6 1.4 11.6 15.8 8.3 2.5 0.4 1.4 0.0 0.0 0.0 0.0 0.0 0.0 0.0 0.0
0.0 0.0 0.0 0.0 0.0 0.0 2.5 57.8 17.6 0.9 0.6 0.7 0.3 1.0 1.4 1.2 3.4 3.1 0.7 1.3 1.0 4.3 15.3 14.4 1.1 0.0 0.0 0.0 0.0 2.7 6.8 0.6 3.1 1.9 1.9 1.4 0.0 0.0 0.0 0.0 0.0 0.0 0.0 0.0 0.0
0.0 0.0 0.0 0.0 0.0 0.0 21.9 26.5 1.1 0.2 0.3 0.9 2.7 1.2 3.7 3.2 4.9 10.3 5.8 3.0 3.3 1.4 3.4 9.9 9.8 0.0 0.0 0.0 0.0 0.4 0.5 5.5 11.8 17.3 6.4 0.9 0.0 0.0 0.0 0.0 0.0 0.0 0.0 0.0 0.0
0.0 2.4 0.0 0.0 0.0 2.4 37.4 8.2 0.6 0.1 0.2 1.8 2.5 3.0 1.5 6.0 6.0 9.5 11.6 2.2 2.7 2.6 3.2 9.6 10.8 5.1 0.2 1.2 0.7 1.4 6.4 3.5 7.5 3.8 3.1 1.0 0.0 0.0 0.0 0.0 0.0 0.0 0.0 0.0 0.0
0.0 14.0 0.0 0.0 11.9 18.5 12.5 1.1 0.0 0.1 0.1 0.4 0.9 1.3 1.3 1.6 7.3 7.8 3.2 5.3 0.1 1.4 5.6 4.2 15.0 14.0 1.7 0.0 0.5 0.1 6.5 4.9 11.2 5.5 4.5 2.4 0.0 0.0 0.0 0.0 0.0 0.0 0.0 0.0 0.0
7.2 2.6 0.0 0.0 28.6 13.9 2.9 1.4 0.8 0.3 0.2 0.5 0.7 0.8 0.3 1.3 9.0 4.0 2.7 0.0 1.6 2.9 7.8 4.7 17.6 18.9 10.8 2.2 0.0 3.6 1.2 3.7 4.7 4.0 2.5 4.2 0.0 0.0 0.0 0.0 0.0 0.0 0.0 0.0 0.0
12.0 21.3 10.2 8.3 6.2 3.7 5.4 2.8 3.1 0.1 0.3 0.3 0.8 0.5 2.6 2.0 0.7 3.6 1.5 0.1 0.0 1.7 0.1 1.2 7.9 8.7 6.3 11.3 11.6 11.8 3.2 2.2 3.6 6.4 1.5 0.6 0.2 0.0 0.1 0.0 0.0 0.0 0.0 0.0 0.0
8.2 14.5 0.2 17.1 8.6 4.6 9.2 7.2 2.3 2.0 1.0 1.0 1.6 0.6 3.1 9.6 3.8 3.2 0.8 0.2 0.7 0.0 1.5 7.6 11.0 4.2 0.6 0.5 2.5 4.4 6.9 4.8 5.7 1.7 3.6 0.0 0.0 0.0 0.1 0.0 0.0 0.0 0.0 0.0 0.0
9.5 7.4 2.5 4.8 0.8 6.2 9.5 8.1 1.2 2.0 3.7 1.4 1.8 0.5 0.5 4.3 2.1 6.3 5.4 3.5 5.8 4.0 7.8 9.7 8.6 2.7 2.1 0.0 0.0 0.8 1.2 2.7 2.4 0.3 0.2 0.2 0.0 0.1 0.0 0.0 0.0 0.1 0.0 0.0 0.0
0.4 0.0 4.2 6.9 5.1 10.8 10.2 3.7 3.7 3.4 1.1 0.0 0.2 2.1 1.0 0.2 0.0 0.0 0.0 1.3 2.5 7.8 9.0 11.7 9.3 6.4 6.4 0.7 0.1 1.8 0.4 0.2 0.3 0.7 1.4 1.8 1.2 0.0 0.0 0.2 1.0 0.5 0.2 0.4 0.0